When you browse on this site, cookies collect data to enhance your experience and personalize the content and advertising you see.
Visit our Privacy Policy to learn more. By continuing to use the site, you agree to this use of cookies and data.
EN

Hourly Weather Dillingen

Today, 12 July, Sunday

Time Temperature Precipitation Wind Pressure Humidity
00:00 +12°C° 0 mm 2 mps 752 mmHg 81%
01:00 +12°C° 0 mm 2 mps 752 mmHg 82%
02:00 +12°C° 0 mm 2 mps 752 mmHg 83%
03:00 +10°C° 0 mm 2 mps 752 mmHg 84%
04:00 +12°C° 0 mm 2 mps 752 mmHg 80%
05:00 +14°C° 0 mm 2 mps 752 mmHg 76%
06:00 +15°C° 0 mm 2 mps 752 mmHg 72%
07:00 +17°C° 0 mm 2 mps 752 mmHg 65%
08:00 +19°C° 0 mm 2 mps 752 mmHg 58%
09:00 +21°C° 0 mm 3 mps 752 mmHg 51%
10:00 +23°C° 0 mm 2 mps 752 mmHg 48%
11:00 +23°C° 0 mm 2 mps 752 mmHg 46%
12:00 +24°C° 0 mm 2 mps 752 mmHg 43%
13:00 +24°C° 0 mm 3 mps 752 mmHg 43%
14:00 +24°C° 0 mm 3 mps 751 mmHg 44%
15:00 +24°C° 0 mm 3 mps 751 mmHg 44%
16:00 +24°C° 0 mm 3 mps 751 mmHg 49%
17:00 +23°C° 0 mm 2 mps 751 mmHg 54%
18:00 +21°C° 0 mm 2 mps 751 mmHg 59%
19:00 +19°C° 0 mm 2 mps 751 mmHg 61%
20:00 +17°C° 0 mm 2 mps 751 mmHg 63%
21:00 +16°C° 0 mm 2 mps 751 mmHg 66%
22:00 +15°C° 0 mm 2 mps 751 mmHg 69%
23:00 +14°C° 0 mm 2 mps 751 mmHg 72%

Tomorrow, 13 July, Monday

Time Temperature Precipitation Wind Pressure Humidity
00:00 +13°C° 0 mm 2 mps 751 mmHg 75%
01:00 +13°C° 0 mm 2 mps 751 mmHg 76%
02:00 +13°C° 0 mm 2 mps 750 mmHg 78%
03:00 +12°C° 0 mm 2 mps 750 mmHg 80%
04:00 +14°C° 0 mm 2 mps 750 mmHg 77%
05:00 +15°C° 0 mm 2 mps 750 mmHg 74%
06:00 +16°C° 0 mm 2 mps 750 mmHg 71%
07:00 +18°C° 0 mm 2 mps 750 mmHg 64%
08:00 +20°C° 0 mm 3 mps 750 mmHg 56%
09:00 +22°C° 0 mm 3 mps 750 mmHg 49%
10:00 +24°C° 0 mm 3 mps 750 mmHg 46%
11:00 +25°C° 0 mm 2 mps 749 mmHg 43%
12:00 +26°C° 0 mm 2 mps 749 mmHg 40%
13:00 +26°C° 0 mm 2 mps 749 mmHg 41%
14:00 +26°C° 0 mm 2 mps 748 mmHg 41%
15:00 +26°C° 0 mm 2 mps 748 mmHg 41%
16:00 +25°C° 0 mm 2 mps 748 mmHg 47%
17:00 +24°C° 0 mm 1 mps 747 mmHg 53%
18:00 +23°C° 0 mm 1 mps 747 mmHg 59%
19:00 +21°C° 0 mm 1 mps 747 mmHg 64%
20:00 +19°C° 0 mm 2 mps 747 mmHg 69%
21:00 +17°C° 0 mm 2 mps 747 mmHg 74%
22:00 +16°C° 0 mm 1 mps 747 mmHg 76%
23:00 +15°C° 0 mm 1 mps 747 mmHg 79%

Day after tomorrow, 14 July, Tuesday

Time Temperature Precipitation Wind Pressure Humidity
00:00 +15°C° 0 mm 1 mps 747 mmHg 81%
01:00 +14°C° 0 mm 1 mps 747 mmHg 82%
02:00 +14°C° 0 mm 1 mps 746 mmHg 82%
03:00 +13°C° 0 mm 1 mps 746 mmHg 82%
04:00 +15°C° 0 mm 1 mps 746 mmHg 79%
05:00 +16°C° 0 mm 1 mps 746 mmHg 75%
06:00 +16°C° 0 mm 0 mps 746 mmHg 72%
07:00 +20°C° 0 mm 1 mps 746 mmHg 66%
08:00 +21°C° 0 mm 1 mps 746 mmHg 60%
09:00 +23°C° 0 mm 1 mps 746 mmHg 54%
10:00 +24°C° 0 mm 1 mps 746 mmHg 50%
11:00 +25°C° 0 mm 2 mps 746 mmHg 46%
12:00 +26°C° 0 mm 2 mps 745 mmHg 43%
13:00 +26°C° 0 mm 2 mps 745 mmHg 43%
14:00 +26°C° 0 mm 3 mps 745 mmHg 43%
15:00 +26°C° 0 mm 3 mps 744 mmHg 43%
16:00 +25°C° 0 mm 3 mps 744 mmHg 50%
17:00 +24°C° 0 mm 3 mps 744 mmHg 57%
18:00 +21°C° 0 mm 3 mps 744 mmHg 64%
19:00 +20°C° 0 mm 2 mps 744 mmHg 67%
20:00 +18°C° 0 mm 2 mps 744 mmHg 70%
21:00 +17°C° 0 mm 2 mps 744 mmHg 73%
22:00 +18°C° 0 mm 1 mps 744 mmHg 74%
23:00 +18°C° 0 mm 1 mps 744 mmHg 76%

15 July, Wednesday

Time Temperature Precipitation Wind Pressure Humidity
00:00 +16°C° 0 mm 1 mps 743 mmHg 77%
01:00 +16°C° 0 mm 1 mps 743 mmHg 78%
02:00 +16°C° 0 mm 1 mps 743 mmHg 79%
03:00 +16°C° 0 mm 1 mps 743 mmHg 80%
04:00 +16°C° 0.4 mm 2 mps 743 mmHg 83%
05:00 +16°C° 0.4 mm 2 mps 743 mmHg 87%
06:00 +15°C° 0.4 mm 2 mps 743 mmHg 91%
07:00 +16°C° 0.3 mm 3 mps 743 mmHg 90%
08:00 +17°C° 0.3 mm 3 mps 743 mmHg 89%
09:00 +18°C° 0.3 mm 4 mps 743 mmHg 88%
10:00 +18°C° 0.6 mm 4 mps 743 mmHg 87%
11:00 +18°C° 0.6 mm 4 mps 744 mmHg 86%
12:00 +18°C° 0.6 mm 4 mps 744 mmHg 85%
13:00 +18°C° 0.1 mm 3 mps 744 mmHg 82%
14:00 +18°C° 0.1 mm 3 mps 744 mmHg 79%
15:00 +18°C° 0.1 mm 3 mps 744 mmHg 75%
16:00 +18°C° 0 mm 3 mps 744 mmHg 77%
17:00 +17°C° 0 mm 3 mps 744 mmHg 78%
18:00 +17°C° 0 mm 2 mps 745 mmHg 80%
19:00 +16°C° 0 mm 2 mps 745 mmHg 82%
20:00 +16°C° 0 mm 2 mps 745 mmHg 84%
21:00 +15°C° 0 mm 2 mps 746 mmHg 86%
22:00 +15°C° 0 mm 2 mps 746 mmHg 86%
23:00 +15°C° 0 mm 2 mps 746 mmHg 86%

16 July, Thursday

Time Temperature Precipitation Wind Pressure Humidity
00:00 +15°C° 0 mm 2 mps 746 mmHg 87%
01:00 +14°C° 0 mm 1 mps 746 mmHg 87%
02:00 +14°C° 0 mm 1 mps 746 mmHg 88%
03:00 +14°C° 0 mm 1 mps 746 mmHg 89%
04:00 +14°C° 0 mm 1 mps 746 mmHg 88%
05:00 +14°C° 0 mm 1 mps 746 mmHg 87%
06:00 +15°C° 0 mm 1 mps 747 mmHg 86%
07:00 +15°C° 0 mm 1 mps 747 mmHg 82%
08:00 +16°C° 0 mm 1 mps 747 mmHg 78%
09:00 +18°C° 0 mm 1 mps 747 mmHg 73%
10:00 +18°C° 0.1 mm 2 mps 747 mmHg 71%
11:00 +19°C° 0.1 mm 2 mps 747 mmHg 68%
12:00 +20°C° 0.1 mm 3 mps 747 mmHg 66%
13:00 +20°C° 0.1 mm 3 mps 747 mmHg 66%
14:00 +20°C° 0.1 mm 3 mps 747 mmHg 65%
15:00 +21°C° 0.1 mm 3 mps 747 mmHg 65%
16:00 +20°C° 0.1 mm 2 mps 747 mmHg 69%
17:00 +20°C° 0.1 mm 2 mps 747 mmHg 74%
18:00 +19°C° 0.1 mm 2 mps 747 mmHg 78%
19:00 +18°C° 0.1 mm 2 mps 747 mmHg 83%
20:00 +17°C° 0.1 mm 2 mps 747 mmHg 88%
21:00 +15°C° 0.1 mm 1 mps 747 mmHg 92%
22:00 +15°C° 0 mm 1 mps 747 mmHg 93%
23:00 +14°C° 0 mm 1 mps 748 mmHg 93%

17 July, Friday

Time Temperature Precipitation Wind Pressure Humidity
00:00 +14°C° 0 mm 1 mps 748 mmHg 94%
01:00 +13°C° 0 mm 1 mps 748 mmHg 94%
02:00 +13°C° 0 mm 1 mps 748 mmHg 94%
03:00 +13°C° 0 mm 1 mps 748 mmHg 94%
04:00 +13°C° 0 mm 1 mps 748 mmHg 91%
05:00 +14°C° 0 mm 1 mps 748 mmHg 89%
06:00 +14°C° 0 mm 0 mps 748 mmHg 87%
07:00 +16°C° 0 mm 0 mps 748 mmHg 78%
08:00 +21°C° 0 mm 1 mps 749 mmHg 69%
09:00 +23°C° 0 mm 1 mps 749 mmHg 59%
10:00 +23°C° 0 mm 1 mps 749 mmHg 56%
11:00 +24°C° 0 mm 1 mps 749 mmHg 52%
12:00 +25°C° 0 mm 1 mps 748 mmHg 48%
13:00 +25°C° 0 mm 1 mps 748 mmHg 47%
14:00 +25°C° 0 mm 2 mps 748 mmHg 45%
15:00 +26°C° 0 mm 2 mps 748 mmHg 44%
16:00 +25°C° 0 mm 2 mps 748 mmHg 50%
17:00 +24°C° 0 mm 2 mps 748 mmHg 56%
18:00 +23°C° 0 mm 1 mps 748 mmHg 61%
19:00 +21°C° 0 mm 1 mps 748 mmHg 67%
20:00 +19°C° 0 mm 1 mps 748 mmHg 72%
21:00 +18°C° 0 mm 1 mps 749 mmHg 78%
22:00 +16°C° 0 mm 1 mps 749 mmHg 80%
23:00 +15°C° 0 mm 1 mps 749 mmHg 81%
Show more